Location: PSU-Greenbush Astrophysical Observatory
(37.5140°N, 94.9880°W)
Time: 19:11:15
(UTC-06:00)

Altair - Pass Details

Date: 29 January 2020
Orbit: 1502 x 1682 km, 47.2° (Epoch: 19 February)

Event Time Altitude Azimuth Distance (km) Brightness Sun altitude
Rises 16:22:46 0° 292° (WNW) 4,920 10.7 12.7°
Reaches altitude 10° 16:27:19 10° 275° (W) 3,909 10.6 11.9°
Maximum altitude 16:33:18 18° 237° (WSW) 3,280 12.1 10.9°
Drops below altitude 10° 16:39:11 10° 199° (SSW) 3,822 10.5 10.0°
Sets 16:43:37 0° 181° (S) 4,769 10.6 9.2°
